| time (UTC) | temp F | wind direction | speed MPH | gust MPH | rain 1hr in | rain 24hr in | rain mn in | humidity % | barometer mb |
| 20260510220045 | 78 | 337 | 2.0 | 6.0 | 0.00 | 0.00 | 0.00 | 34 | 1015.6 |
| 20260510215541 | 78 | 11 | 3.0 | 6.0 | 0.00 | 0.00 | 0.00 | 34 | 1015.5 |
| 20260510215039 | 78 | 322 | 3.0 | 6.0 | 0.00 | 0.00 | 0.00 | 34 | 1015.6 |
| 20260510214600 | 77 | 338 | 1.0 | 5.0 | 0.00 | 0.00 | 0.00 | 35 | 1015.7 |
| 20260510214039 | 77 | 355 | 2.0 | 10.0 | 0.00 | 0.00 | 0.00 | 34 | 1015.6 |
| 20260510213538 | 77 | 346 | 4.0 | 10.0 | 0.00 | 0.00 | 0.00 | 32 | 1015.6 |
| 20260510213047 | 77 | 355 | 7.0 | 10.0 | 0.00 | 0.00 | 0.00 | 33 | 1015.7 |
| 20260510212538 | 77 | 30 | 4.0 | 10.0 | 0.00 | 0.00 | 0.00 | 33 | 1015.6 |
| 20260510212038 | 77 | 41 | 4.0 | 10.0 | 0.00 | 0.00 | 0.00 | 35 | 1015.6 |
| 20260510211557 | 77 | 32 | 5.0 | 10.0 | 0.00 | 0.00 | 0.00 | 35 | 1015.6 |
| 20260510211040 | 77 | 342 | 3.0 | 10.0 | 0.00 | 0.00 | 0.00 | 36 | 1015.7 |
| 20260510210542 | 77 | 312 | 3.0 | 10.0 | 0.00 | 0.00 | 0.00 | 34 | 1015.7 |
| 20260510210048 | 77 | 237 | 4.0 | 10.0 | 0.00 | 0.00 | 0.00 | 36 | 1015.6 |
| 20260510205539 | 77 | 19 | 2.0 | 11.0 | 0.00 | 0.00 | 0.00 | 37 | 1015.7 |
| 20260510205041 | 77 | 331 | 4.0 | 11.0 | 0.00 | 0.00 | 0.00 | 38 | 1015.6 |
| 20260510204554 | 77 | 277 | 5.0 | 10.0 | 0.00 | 0.00 | 0.00 | 39 | 1015.6 |
| 20260510204040 | 77 | 267 | 3.0 | 8.0 | 0.00 | 0.00 | 0.00 | 39 | 1015.6 |
| 20260510203539 | 77 | 338 | 2.0 | 10.0 | 0.00 | 0.00 | 0.00 | 40 | 1015.6 |
| 20260510203048 | 76 | 5 | 3.0 | 10.0 | 0.00 | 0.00 | 0.00 | 40 | 1015.6 |
| 20260510202540 | 76 | 40 | 3.0 | 14.0 | 0.00 | 0.00 | 0.00 | 42 | 1015.7 |
| 20260510202038 | 76 | 24 | 4.0 | 14.0 | 0.00 | 0.00 | 0.00 | 41 | 1015.6 |
| 20260510201543 | 76 | 40 | 4.0 | 11.0 | 0.00 | 0.00 | 0.00 | 42 | 1015.7 |
| 20260510201038 | 76 | 0 | 4.0 | 11.0 | 0.00 | 0.00 | 0.00 | 41 | 1015.8 |
| 20260510200538 | 76 | 11 | 6.0 | 11.0 | 0.00 | 0.00 | 0.00 | 40 | 1015.9 |
| 20260510200047 | 76 | 347 | 5.0 | 11.0 | 0.00 | 0.00 | 0.00 | 40 | 1015.9 |
| 20260510195540 | 76 | 0 | 3.0 | 9.0 | 0.00 | 0.00 | 0.00 | 40 | 1015.9 |
| 20260510195042 | 77 | 360 | 3.0 | 8.0 | 0.00 | 0.00 | 0.00 | 41 | 1016.0 |
| 20260510194550 | 76 | 262 | 3.0 | 7.0 | 0.00 | 0.00 | 0.00 | 37 | 1015.9 |
| 20260510194039 | 76 | 197 | 3.0 | 7.0 | 0.00 | 0.00 | 0.00 | 37 | 1016.0 |
| 20260510193539 | 76 | 205 | 2.0 | 8.0 | 0.00 | 0.00 | 0.00 | 37 | 1016.1 |
| 20260510193054 | 76 | 221 | 4.0 | 8.0 | 0.00 | 0.00 | 0.00 | 39 | 1016.1 |
| 20260510192542 | 75 | 250 | 2.0 | 8.0 | 0.00 | 0.00 | 0.00 | 42 | 1016.1 |
| 20260510192039 | 75 | 304 | 2.0 | 8.0 | 0.00 | 0.00 | 0.00 | 41 | 1016.0 |
| 20260510191551 | 75 | 255 | 4.0 | 9.0 | 0.00 | 0.00 | 0.00 | 43 | 1016.1 |
| 20260510191042 | 75 | 263 | 5.0 | 9.0 | 0.00 | 0.00 | 0.00 | 46 | 1016.1 |
| 20260510190538 | 75 | 246 | 5.0 | 9.0 | 0.00 | 0.00 | 0.00 | 46 | 1016.1 |
| 20260510190047 | 75 | 265 | 6.0 | 9.0 | 0.00 | 0.00 | 0.00 | 47 | 1016.2 |
| 20260510185538 | 75 | 232 | 4.0 | 9.0 | 0.00 | 0.00 | 0.00 | 47 | 1016.2 |
| 20260510185039 | 74 | 283 | 4.0 | 8.0 | 0.00 | 0.00 | 0.00 | 49 | 1016.3 |
| 20260510184548 | 74 | 259 | 2.0 | 9.0 | 0.00 | 0.00 | 0.00 | 49 | 1016.4 |
| 20260510184038 | 74 | 234 | 7.0 | 9.0 | 0.00 | 0.00 | 0.00 | 50 | 1016.5 |
| 20260510183538 | 74 | 240 | 4.0 | 11.0 | 0.00 | 0.00 | 0.00 | 52 | 1016.5 |
| 20260510183050 | 73 | 254 | 6.0 | 11.0 | 0.00 | 0.00 | 0.00 | 53 | 1016.4 |
| 20260510182541 | 73 | 262 | 7.0 | 9.0 | 0.00 | 0.00 | 0.00 | 53 | 1016.4 |
| 20260510182038 | 73 | 355 | 3.0 | 11.0 | 0.00 | 0.00 | 0.00 | 53 | 1016.5 |
| 20260510181603 | 73 | 330 | 3.0 | 11.0 | 0.00 | 0.00 | 0.00 | 56 | 1016.5 |
| 20260510181038 | 73 | 286 | 6.0 | 11.0 | 0.00 | 0.00 | 0.00 | 56 | 1016.5 |
| 20260510180539 | 73 | 262 | 5.0 | 9.0 | 0.00 | 0.00 | 0.00 | 56 | 1016.4 |
| 20260510180053 | 73 | 217 | 3.0 | 9.0 | 0.00 | 0.00 | 0.00 | 56 | 1016.5 |
| 20260510175538 | 73 | 235 | 4.0 | 10.0 | 0.00 | 0.00 | 0.00 | 54 | 1016.4 |
| 20260510175039 | 72 | 231 | 6.0 | 10.0 | 0.00 | 0.00 | 0.00 | 55 | 1016.6 |
| 20260510174548 | 73 | 242 | 2.0 | 10.0 | 0.00 | 0.00 | 0.00 | 56 | 1016.6 |
| 20260510174043 | 73 | 232 | 2.0 | 10.0 | 0.00 | 0.00 | 0.00 | 56 | 1016.6 |
| 20260510173538 | 72 | 238 | 5.0 | 9.0 | 0.00 | 0.00 | 0.00 | 56 | 1016.6 |
| 20260510173047 | 72 | 267 | 4.0 | 8.0 | 0.00 | 0.00 | 0.00 | 55 | 1016.7 |
| 20260510172538 | 72 | 196 | 4.0 | 8.0 | 0.00 | 0.00 | 0.00 | 55 | 1016.8 |
| 20260510172039 | 72 | 245 | 3.0 | 7.0 | 0.00 | 0.00 | 0.00 | 55 | 1016.8 |
| 20260510171553 | 71 | 261 | 3.0 | 8.0 | 0.00 | 0.00 | 0.00 | 55 | 1016.8 |
| 20260510171042 | 71 | 255 | 4.0 | 8.0 | 0.00 | 0.00 | 0.00 | 55 | 1016.9 |
| 20260510170538 | 71 | 242 | 6.0 | 8.0 | 0.00 | 0.00 | 0.00 | 55 | 1016.9 |
| 20260510170108 | 71 | 246 | 4.0 | 7.0 | 0.00 | 0.00 | 0.00 | 54 | 1016.8 |
| 20260510165538 | 71 | 251 | 3.0 | 7.0 | 0.00 | 0.00 | 0.00 | 58 | 1016.9 |
| 20260510165044 | 70 | 257 | 4.0 | 10.0 | 0.00 | 0.00 | 0.00 | 60 | 1017.0 |
| 20260510164601 | 70 | 250 | 6.0 | 10.0 | 0.00 | 0.00 | 0.00 | 62 | 1017.0 |
| 20260510164038 | 70 | 268 | 5.0 | 8.0 | 0.00 | 0.00 | 0.00 | 67 | 1017.0 |
| 20260510163539 | 70 | 233 | 5.0 | 8.0 | 0.00 | 0.00 | 0.00 | 68 | 1016.9 |
| 20260510163049 | 69 | 259 | 4.0 | 8.0 | 0.00 | 0.00 | 0.00 | 69 | 1016.9 |
| 20260510162538 | 69 | 250 | 5.0 | 8.0 | 0.00 | 0.00 | 0.00 | 69 | 1017.0 |
| 20260510162038 | 69 | 228 | 5.0 | 8.0 | 0.00 | 0.00 | 0.00 | 71 | 1017.0 |
| 20260510161548 | 69 | 249 | 3.0 | 11.0 | 0.00 | 0.00 | 0.00 | 73 | 1016.9 |
| 20260510161038 | 68 | 223 | 4.0 | 11.0 | 0.00 | 0.00 | 0.00 | 74 | 1017.1 |
| 20260510160541 | 68 | 227 | 4.0 | 11.0 | 0.00 | 0.00 | 0.00 | 73 | 1017.1 |
| 20260510160051 | 68 | 264 | 1.0 | 8.0 | 0.00 | 0.00 | 0.00 | 77 | 1017.2 |
| 20260510155538 | 67 | 130 | 3.0 | 8.0 | 0.00 | 0.00 | 0.00 | 78 | 1017.1 |
| 20260510155038 | 67 | 260 | 3.0 | 7.0 | 0.00 | 0.00 | 0.00 | 80 | 1017.1 |
| 20260510154553 | 67 | 208 | 3.0 | 7.0 | 0.00 | 0.00 | 0.00 | 80 | 1017.2 |
| 20260510154040 | 66 | 244 | 3.0 | 7.0 | 0.00 | 0.00 | 0.00 | 81 | 1017.2 |
| 20260510153539 | 66 | 228 | 2.0 | 8.0 | 0.00 | 0.00 | 0.00 | 83 | 1017.2 |
| 20260510153052 | 65 | 228 | 3.0 | 8.0 | 0.00 | 0.00 | 0.00 | 85 | 1017.3 |
| 20260510152539 | 65 | 273 | 3.0 | 5.0 | 0.00 | 0.00 | 0.00 | 86 | 1017.3 |
| 20260510152038 | 64 | 240 | 2.0 | 5.0 | 0.00 | 0.00 | 0.00 | 86 | 1017.3 |
| 20260510151544 | 63 | 229 | 3.0 | 5.0 | 0.00 | 0.00 | 0.00 | 86 | 1017.3 |
| 20260510151040 | 63 | 237 | 3.0 | 5.0 | 0.00 | 0.00 | 0.00 | 85 | 1017.3 |
| 20260510150539 | 62 | 239 | 3.0 | 5.0 | 0.00 | 0.00 | 0.00 | 85 | 1017.4 |
| 20260510150048 | 62 | 234 | 3.0 | 4.0 | 0.00 | 0.00 | 0.00 | 84 | 1017.3 |
| 20260510145542 | 61 | 254 | 3.0 | 5.0 | 0.00 | 0.00 | 0.00 | 84 | 1017.3 |
| 20260510145039 | 61 | 234 | 3.0 | 5.0 | 0.00 | 0.00 | 0.00 | 84 | 1017.3 |
| 20260510144550 | 60 | 226 | 3.0 | 5.0 | 0.00 | 0.00 | 0.00 | 84 | 1017.4 |
| 20260510144044 | 59 | 235 | 3.0 | 5.0 | 0.00 | 0.00 | 0.00 | 84 | 1017.4 |
| 20260510143539 | 59 | 241 | 3.0 | 5.0 | 0.00 | 0.00 | 0.00 | 85 | 1017.3 |
| 20260510143052 | 59 | 221 | 3.0 | 5.0 | 0.00 | 0.00 | 0.00 | 85 | 1017.4 |
| 20260510142539 | 58 | 236 | 3.0 | 5.0 | 0.00 | 0.00 | 0.00 | 85 | 1017.3 |
| 20260510142039 | 58 | 239 | 3.0 | 5.0 | 0.00 | 0.00 | 0.00 | 85 | 1017.3 |
| 20260510141551 | 58 | 236 | 3.0 | 5.0 | 0.00 | 0.00 | 0.00 | 85 | 1017.3 |
| 20260510141038 | 58 | 238 | 2.0 | 6.0 | 0.00 | 0.00 | 0.00 | 85 | 1017.4 |
| 20260510140538 | 58 | 246 | 3.0 | 6.0 | 0.00 | 0.00 | 0.00 | 85 | 1017.3 |
| 20260510140050 | 58 | 266 | 0.0 | 2.0 | 0.00 | 0.00 | 0.00 | 85 | 1017.4 |
| 20260510135539 | 57 | 300 | 0.0 | 2.0 | 0.00 | 0.00 | 0.00 | 85 | 1017.4 |
| 20260510135039 | 57 | 241 | 1.0 | 2.0 | 0.00 | 0.00 | 0.00 | 85 | 1017.4 |
| 20260510134544 | 57 | 0 | 0.0 | 2.0 | 0.00 | 0.00 | 0.00 | 85 | 1017.4 |
| 20260510134039 | 57 | 329 | 0.0 | 2.0 | 0.00 | 0.00 | 0.00 | 85 | 1017.4 |
| 20260510133538 | 56 | 0 | 0.0 | 3.0 | 0.00 | 0.00 | 0.00 | 85 | 1017.3 |
| 20260510133047 | 56 | 355 | 0.0 | 3.0 | 0.00 | 0.00 | 0.00 | 85 | 1017.4 |
| 20260510132538 | 56 | 355 | 2.0 | 3.0 | 0.00 | 0.00 | 0.00 | 85 | 1017.4 |
| 20260510132039 | 56 | 5 | 1.0 | 3.0 | 0.00 | 0.00 | 0.00 | 85 | 1017.4 |
| 20260510131545 | 56 | 5 | 1.0 | 3.0 | 0.00 | 0.00 | 0.00 | 85 | 1017.3 |
| 20260510131038 | 56 | 5 | 1.0 | 3.0 | 0.00 | 0.00 | 0.00 | 85 | 1017.3 |
| 20260510130538 | 56 | 19 | 1.0 | 3.0 | 0.00 | 0.00 | 0.00 | 86 | 1017.2 |
| 20260510130049 | 55 | 0 | 0.0 | 3.0 | 0.00 | 0.00 | 0.00 | 85 | 1017.2 |
| 20260510125540 | 55 | 119 | 1.0 | 3.0 | 0.00 | 0.00 | 0.00 | 85 | 1017.2 |
| 20260510125040 | 55 | 126 | 0.0 | 3.0 | 0.00 | 0.00 | 0.00 | 85 | 1017.1 |
| 20260510124559 | 55 | 0 | 1.0 | 4.0 | 0.00 | 0.00 | 0.00 | 86 | 1017.1 |
| 20260510124043 | 55 | 352 | 1.0 | 6.0 | 0.00 | 0.00 | 0.00 | 86 | 1017.1 |
| 20260510123539 | 55 | 17 | 3.0 | 6.0 | 0.00 | 0.00 | 0.00 | 86 | 1017.2 |
| 20260510123045 | 55 | 30 | 4.0 | 6.0 | 0.00 | 0.00 | 0.00 | 86 | 1017.1 |
| 20260510122538 | 55 | 30 | 2.0 | 5.0 | 0.00 | 0.00 | 0.00 | 86 | 1017.1 |
| 20260510122038 | 55 | 44 | 1.0 | 5.0 | 0.00 | 0.00 | 0.00 | 86 | 1017.1 |
| 20260510121544 | 55 | 42 | 3.0 | 5.0 | 0.00 | 0.00 | 0.00 | 86 | 1017.2 |
| 20260510121039 | 55 | 33 | 2.0 | 5.0 | 0.00 | 0.00 | 0.00 | 86 | 1017.0 |
| 20260510120538 | 55 | 41 | 3.0 | 5.0 | 0.00 | 0.00 | 0.00 | 86 | 1016.9 |
| 20260510120044 | 55 | 22 | 3.0 | 5.0 | 0.00 | 0.00 | 0.00 | 86 | 1016.8 |
| 20260510115538 | 55 | 17 | 3.0 | 5.0 | 0.00 | 0.00 | 0.00 | 86 | 1016.6 |
| 20260510115038 | 55 | 29 | 2.0 | 4.0 | 0.00 | 0.00 | 0.00 | 86 | 1016.6 |
| 20260510114553 | 55 | 31 | 3.0 | 4.0 | 0.00 | 0.00 | 0.00 | 86 | 1016.5 |
| 20260510114038 | 55 | 38 | 1.0 | 4.0 | 0.00 | 0.00 | 0.00 | 86 | 1016.4 |
| 20260510113542 | 55 | 42 | 1.0 | 4.0 | 0.00 | 0.00 | 0.00 | 86 | 1016.3 |
| 20260510113052 | 55 | 74 | 2.0 | 4.0 | 0.00 | 0.00 | 0.00 | 86 | 1016.2 |
| 20260510112538 | 55 | 42 | 1.0 | 3.0 | 0.00 | 0.00 | 0.00 | 86 | 1016.1 |
| 20260510112039 | 55 | 32 | 1.0 | 4.0 | 0.00 | 0.00 | 0.00 | 86 | 1016.1 |
| 20260510111555 | 55 | 36 | 2.0 | 4.0 | 0.00 | 0.00 | 0.00 | 86 | 1016.0 |
| 20260510111039 | 55 | 49 | 1.0 | 3.0 | 0.00 | 0.00 | 0.00 | 86 | 1015.9 |
| 20260510110538 | 55 | 36 | 1.0 | 3.0 | 0.00 | 0.00 | 0.00 | 86 | 1015.9 |
| 20260510110053 | 55 | 41 | 1.0 | 3.0 | 0.00 | 0.00 | 0.00 | 86 | 1015.8 |
| 20260510105539 | 55 | 51 | 2.0 | 3.0 | 0.00 | 0.00 | 0.00 | 86 | 1015.7 |
| 20260510105039 | 55 | 43 | 1.0 | 2.0 | 0.00 | 0.00 | 0.00 | 86 | 1015.6 |
| 20260510104555 | 55 | 71 | 0.0 | 2.0 | 0.00 | 0.00 | 0.00 | 86 | 1015.6 |
| 20260510104038 | 55 | 71 | 0.0 | 3.0 | 0.00 | 0.00 | 0.00 | 86 | 1015.5 |
| 20260510103538 | 55 | 71 | 0.0 | 3.0 | 0.00 | 0.00 | 0.00 | 86 | 1015.4 |
| 20260510103058 | 55 | 59 | 2.0 | 3.0 | 0.00 | 0.00 | 0.00 | 86 | 1015.3 |
| 20260510102538 | 55 | 38 | 2.0 | 4.0 | 0.00 | 0.00 | 0.00 | 86 | 1015.3 |
| 20260510102038 | 55 | 39 | 2.0 | 4.0 | 0.00 | 0.00 | 0.00 | 86 | 1015.2 |
| 20260510101557 | 55 | 51 | 1.0 | 3.0 | 0.00 | 0.00 | 0.00 | 86 | 1015.1 |
| 20260510101039 | 55 | 56 | 0.0 | 2.0 | 0.00 | 0.00 | 0.00 | 86 | 1015.1 |
| 20260510100539 | 55 | 81 | 0.0 | 2.0 | 0.00 | 0.00 | 0.00 | 86 | 1015.1 |
| 20260510100055 | 55 | 0 | 1.0 | 2.0 | 0.00 | 0.00 | 0.00 | 86 | 1015.0 |
| 20260510095540 | 55 | 53 | 0.0 | 1.0 | 0.00 | 0.00 | 0.00 | 86 | 1015.1 |
| 20260510095039 | 55 | 0 | 0.0 | 1.0 | 0.00 | 0.00 | 0.00 | 86 | 1015.0 |
| 20260510094555 | 55 | 0 | 0.0 | 1.0 | 0.00 | 0.00 | 0.00 | 86 | 1015.1 |
| 20260510094038 | 55 | 0 | 0.0 | 2.0 | 0.00 | 0.00 | 0.00 | 86 | 1015.0 |
| 20260510093538 | 55 | 0 | 0.0 | 2.0 | 0.00 | 0.00 | 0.00 | 86 | 1014.9 |
| 20260510093102 | 55 | 53 | 1.0 | 2.0 | 0.00 | 0.00 | 0.00 | 86 | 1014.9 |
| 20260510092539 | 55 | 53 | 0.0 | 2.0 | 0.00 | 0.00 | 0.00 | 86 | 1014.9 |
| 20260510092039 | 55 | 0 | 0.0 | 2.0 | 0.00 | 0.00 | 0.00 | 86 | 1014.9 |
| 20260510091554 | 55 | 53 | 0.0 | 2.0 | 0.00 | 0.00 | 0.00 | 86 | 1014.8 |
| 20260510091038 | 55 | 53 | 1.0 | 2.0 | 0.00 | 0.00 | 0.00 | 86 | 1014.7 |
| 20260510090541 | 55 | 53 | 0.0 | 1.0 | 0.00 | 0.00 | 0.00 | 86 | 1014.6 |
| 20260510090050 | 55 | 0 | 0.0 | 1.0 | 0.00 | 0.00 | 0.00 | 86 | 1014.5 |
| 20260510085542 | 55 | 0 | 0.0 | 1.0 | 0.00 | 0.00 | 0.00 | 86 | 1014.6 |
| 20260510085044 | 55 | 53 | 0.0 | 1.0 | 0.00 | 0.00 | 0.00 | 86 | 1014.4 |
| 20260510084548 | 55 | 0 | 0.0 | 1.0 | 0.00 | 0.00 | 0.00 | 86 | 1014.4 |
| 20260510084041 | 55 | 0 | 0.0 | 1.0 | 0.00 | 0.00 | 0.00 | 86 | 1014.4 |
| 20260510083542 | 56 | 0 | 0.0 | 1.0 | 0.00 | 0.00 | 0.00 | 86 | 1014.3 |
| 20260510083059 | 56 | 0 | 0.0 | 1.0 | 0.00 | 0.00 | 0.00 | 86 | 1014.3 |
| 20260510082540 | 56 | 0 | 0.0 | 2.0 | 0.00 | 0.00 | 0.00 | 86 | 1014.2 |
| 20260510082040 | 56 | 0 | 0.0 | 2.0 | 0.00 | 0.00 | 0.00 | 86 | 1014.0 |
| 20260510081547 | 56 | 0 | 0.0 | 2.0 | 0.00 | 0.00 | 0.00 | 86 | 1013.9 |
| 20260510081040 | 56 | 53 | 0.0 | 3.0 | 0.00 | 0.00 | 0.00 | 86 | 1013.8 |
| 20260510080541 | 56 | 59 | 0.0 | 3.0 | 0.00 | 0.00 | 0.00 | 86 | 1013.8 |
| 20260510080049 | 56 | 59 | 1.0 | 3.0 | 0.00 | 0.00 | 0.00 | 86 | 1013.9 |
| 20260510075540 | 56 | 25 | 0.0 | 0.0 | 0.00 | 0.00 | 0.00 | 89 | 1013.8 |
| 20260510075044 | 56 | 0 | 0.0 | 0.0 | 0.00 | 0.00 | 0.00 | 86 | 1013.8 |
| 20260510074549 | 56 | 0 | 0.0 | 0.0 | 0.00 | 0.00 | 0.00 | 86 | 1013.7 |
| 20260510074040 | 57 | 0 | 0.0 | 0.0 | 0.00 | 0.00 | 0.00 | 86 | 1013.6 |
| 20260510073540 | 57 | 0 | 0.0 | 0.0 | 0.00 | 0.00 | 0.00 | 86 | 1013.8 |
| 20260510073050 | 57 | 0 | 0.0 | 0.0 | 0.00 | 0.00 | 0.00 | 86 | 1013.7 |
| 20260510072541 | 57 | 0 | 0.0 | 0.0 | 0.00 | 0.00 | 0.00 | 86 | 1013.5 |
| 20260510072040 | 57 | 0 | 0.0 | 0.0 | 0.00 | 0.00 | 0.00 | 86 | 1013.5 |
| 20260510071548 | 57 | 0 | 0.0 | 0.0 | 0.00 | 0.00 | 0.00 | 86 | 1013.5 |
| 20260510071040 | 57 | 0 | 0.0 | 0.0 | 0.00 | 0.00 | 0.00 | 86 | 1013.5 |
| 20260510070540 | 57 | 0 | 0.0 | 0.0 | 0.00 | 0.00 | 0.00 | 86 | 1013.5 |
| 20260510070050 | 57 | 0 | 0.0 | 0.0 | 0.00 | 0.00 | 0.00 | 86 | 1013.5 |
| 20260510065544 | 57 | 0 | 0.0 | 0.0 | 0.00 | 0.00 | 0.00 | 86 | 1013.5 |
| 20260510065041 | 57 | 0 | 0.0 | 0.0 | 0.00 | 0.00 | 0.00 | 86 | 1013.5 |
| 20260510064544 | 57 | 0 | 0.0 | 0.0 | 0.00 | 0.00 | 0.00 | 86 | 1013.4 |
| 20260510064041 | 57 | 0 | 0.0 | 0.0 | 0.00 | 0.00 | 0.00 | 86 | 1013.5 |
| 20260510063540 | 58 | 0 | 0.0 | 1.0 | 0.00 | 0.00 | 0.00 | 86 | 1013.5 |
| 20260510063051 | 58 | 0 | 0.0 | 2.0 | 0.00 | 0.00 | 0.00 | 86 | 1013.5 |
| 20260510062539 | 58 | 0 | 0.0 | 2.0 | 0.00 | 0.00 | 0.00 | 86 | 1013.5 |
| 20260510062043 | 58 | 0 | 1.0 | 2.0 | 0.00 | 0.00 | 0.00 | 86 | 1013.5 |
| 20260510061549 | 58 | 0 | 0.0 | 2.0 | 0.00 | 0.00 | 0.00 | 86 | 1013.6 |
| 20260510061040 | 58 | 0 | 0.0 | 2.0 | 0.00 | 0.00 | 0.00 | 86 | 1013.6 |
| 20260510060541 | 58 | 57 | 0.0 | 3.0 | 0.00 | 0.00 | 0.00 | 86 | 1013.6 |
| 20260510060047 | 58 | 5 | 1.0 | 3.0 | 0.00 | 0.00 | 0.00 | 86 | 1013.6 |
| 20260510055538 | 58 | 28 | 0.0 | 2.0 | 0.00 | 0.00 | 0.00 | 86 | 1013.7 |
| 20260510055039 | 59 | 0 | 0.0 | 0.0 | 0.00 | 0.00 | 0.00 | 86 | 1013.7 |
| 20260510054548 | 59 | 0 | 0.0 | 1.0 | 0.00 | 0.00 | 0.00 | 86 | 1013.7 |
| 20260510054040 | 59 | 0 | 0.0 | 2.0 | 0.00 | 0.00 | 0.00 | 86 | 1013.7 |
| 20260510053538 | 59 | 0 | 0.0 | 2.0 | 0.00 | 0.00 | 0.00 | 86 | 1013.8 |
| 20260510053047 | 59 | 88 | 0.0 | 1.0 | 0.00 | 0.00 | 0.00 | 86 | 1013.8 |
| 20260510052538 | 59 | 0 | 0.0 | 2.0 | 0.00 | 0.00 | 0.00 | 86 | 1013.7 |
| 20260510052038 | 59 | 0 | 0.0 | 3.0 | 0.00 | 0.00 | 0.00 | 86 | 1013.7 |
| 20260510051545 | 59 | 88 | 0.0 | 3.0 | 0.00 | 0.00 | 0.00 | 86 | 1013.8 |
| 20260510051042 | 59 | 88 | 0.0 | 2.0 | 0.00 | 0.00 | 0.00 | 86 | 1013.8 |
| 20260510050540 | 59 | 0 | 0.0 | 0.0 | 0.00 | 0.00 | 0.00 | 86 | 1014.0 |
| 20260510050056 | 59 | 0 | 0.0 | 0.0 | 0.00 | 0.00 | 0.00 | 86 | 1014.1 |
| 20260510045538 | 60 | 0 | 0.0 | 2.0 | 0.00 | 0.00 | 0.00 | 86 | 1014.0 |
| 20260510045038 | 60 | 0 | 0.0 | 2.0 | 0.00 | 0.00 | 0.00 | 86 | 1014.1 |
| 20260510044550 | 60 | 69 | 0.0 | 2.0 | 0.00 | 0.00 | 0.00 | 86 | 1014.0 |
| 20260510044039 | 60 | 69 | 0.0 | 2.0 | 0.00 | 0.00 | 0.00 | 86 | 1014.0 |
| 20260510043539 | 60 | 0 | 0.0 | 2.0 | 0.00 | 0.00 | 0.00 | 86 | 1014.1 |
| 20260510043054 | 60 | 0 | 0.0 | 1.0 | 0.00 | 0.00 | 0.00 | 86 | 1014.1 |
| 20260510042540 | 60 | 71 | 0.0 | 1.0 | 0.00 | 0.00 | 0.00 | 86 | 1014.1 |
| 20260510042038 | 60 | 0 | 0.0 | 1.0 | 0.00 | 0.00 | 0.00 | 86 | 1014.1 |
| 20260510041553 | 61 | 71 | 0.0 | 1.0 | 0.00 | 0.00 | 0.00 | 86 | 1014.2 |
| 20260510041039 | 61 | 0 | 0.0 | 1.0 | 0.00 | 0.00 | 0.00 | 86 | 1014.1 |
| 20260510040541 | 61 | 0 | 0.0 | 2.0 | 0.00 | 0.00 | 0.00 | 86 | 1014.1 |
| 20260510040053 | 61 | 0 | 0.0 | 2.0 | 0.00 | 0.00 | 0.00 | 86 | 1014.0 |
| 20260510035538 | 61 | 71 | 0.0 | 2.0 | 0.00 | 0.00 | 0.00 | 86 | 1013.9 |
| 20260510035038 | 61 | 0 | 0.0 | 3.0 | 0.00 | 0.00 | 0.00 | 86 | 1013.8 |
| 20260510034551 | 61 | 0 | 0.0 | 3.0 | 0.00 | 0.00 | 0.00 | 86 | 1013.9 |
| 20260510034039 | 61 | 51 | 2.0 | 3.0 | 0.00 | 0.00 | 0.00 | 86 | 1013.8 |
| 20260510033538 | 61 | 0 | 0.0 | 2.0 | 0.00 | 0.00 | 0.00 | 86 | 1013.8 |
| 20260510033101 | 61 | 0 | 0.0 | 2.0 | 0.00 | 0.00 | 0.00 | 86 | 1013.7 |
| 20260510032538 | 61 | 65 | 0.0 | 2.0 | 0.00 | 0.00 | 0.00 | 86 | 1013.7 |
| 20260510032038 | 62 | 65 | 1.0 | 2.0 | 0.00 | 0.00 | 0.00 | 86 | 1013.6 |
| 20260510031553 | 62 | 24 | 1.0 | 3.0 | 0.00 | 0.00 | 0.00 | 86 | 1013.7 |
| 20260510031037 | 62 | 0 | 0.0 | 3.0 | 0.00 | 0.00 | 0.00 | 86 | 1013.7 |
| 20260510030538 | 62 | 55 | 2.0 | 3.0 | 0.00 | 0.00 | 0.00 | 86 | 1013.7 |
| 20260510030045 | 62 | 19 | 1.0 | 4.0 | 0.00 | 0.00 | 0.00 | 86 | 1013.5 |
| 20260510025538 | 62 | 0 | 1.0 | 4.0 | 0.00 | 0.00 | 0.00 | 86 | 1013.5 |
| 20260510025039 | 62 | 34 | 2.0 | 4.0 | 0.00 | 0.00 | 0.00 | 86 | 1013.5 |
| 20260510024547 | 62 | 28 | 3.0 | 4.0 | 0.00 | 0.00 | 0.00 | 86 | 1013.5 |
| 20260510024040 | 62 | 44 | 0.0 | 2.0 | 0.00 | 0.00 | 0.00 | 86 | 1013.5 |
| 20260510023540 | 62 | 0 | 0.0 | 2.0 | 0.00 | 0.00 | 0.00 | 86 | 1013.4 |
| 20260510023045 | 62 | 44 | 0.0 | 2.0 | 0.00 | 0.00 | 0.00 | 85 | 1013.2 |
| 20260510022540 | 62 | 0 | 0.0 | 2.0 | 0.00 | 0.00 | 0.00 | 85 | 1013.3 |
| 20260510022040 | 62 | 0 | 0.0 | 2.0 | 0.00 | 0.00 | 0.00 | 85 | 1013.3 |
| 20260510021547 | 63 | 44 | 0.0 | 2.0 | 0.00 | 0.00 | 0.00 | 85 | 1013.3 |
| 20260510021041 | 63 | 0 | 0.0 | 2.0 | 0.00 | 0.00 | 0.00 | 85 | 1013.2 |
| 20260510020541 | 63 | 44 | 0.0 | 3.0 | 0.00 | 0.00 | 0.00 | 85 | 1013.1 |
| 20260510020045 | 63 | 44 | 0.0 | 3.0 | 0.00 | 0.00 | 0.00 | 85 | 1013.1 |
| 20260510015540 | 63 | 59 | 0.0 | 2.0 | 0.00 | 0.00 | 0.00 | 85 | 1013.1 |
| 20260510015040 | 63 | 0 | 0.0 | 3.0 | 0.00 | 0.00 | 0.00 | 85 | 1013.0 |
| 20260510014547 | 63 | 53 | 1.0 | 4.0 | 0.00 | 0.00 | 0.00 | 85 | 1012.9 |
| 20260510014040 | 63 | 32 | 2.0 | 4.0 | 0.00 | 0.00 | 0.00 | 85 | 1012.9 |
| 20260510013541 | 63 | 0 | 0.0 | 2.0 | 0.00 | 0.00 | 0.00 | 84 | 1012.9 |
| 20260510013046 | 64 | 51 | 0.0 | 4.0 | 0.00 | 0.00 | 0.00 | 84 | 1012.8 |
| 20260510012543 | 64 | 0 | 1.0 | 4.0 | 0.00 | 0.00 | 0.00 | 84 | 1012.9 |
| 20260510012042 | 64 | 27 | 3.0 | 4.0 | 0.00 | 0.00 | 0.00 | 84 | 1012.8 |
| 20260510011550 | 64 | 127 | 0.0 | 2.0 | 0.00 | 0.00 | 0.00 | 83 | 1012.8 |
| 20260510011041 | 64 | 0 | 0.0 | 2.0 | 0.00 | 0.00 | 0.00 | 83 | 1012.6 |
| 20260510010540 | 64 | 127 | 0.0 | 2.0 | 0.00 | 0.00 | 0.00 | 83 | 1012.6 |
| 20260510010050 | 64 | 0 | 0.0 | 2.0 | 0.00 | 0.00 | 0.00 | 82 | 1012.6 |
| 20260510005540 | 65 | 0 | 0.0 | 2.0 | 0.00 | 0.00 | 0.00 | 82 | 1012.4 |
| 20260510005039 | 65 | 127 | 0.0 | 2.0 | 0.00 | 0.00 | 0.00 | 82 | 1012.2 |
| 20260510004548 | 65 | 0 | 0.0 | 2.0 | 0.00 | 0.00 | 0.00 | 82 | 1012.1 |
| 20260510004040 | 65 | 127 | 1.0 | 4.0 | 0.00 | 0.00 | 0.00 | 81 | 1012.1 |
| 20260510003541 | 65 | 0 | 0.0 | 7.0 | 0.00 | 0.00 | 0.00 | 82 | 1012.0 |
| 20260510003056 | 65 | 194 | 2.0 | 7.0 | 0.00 | 0.00 | 0.00 | 82 | 1012.0 |
| 20260510002540 | 66 | 226 | 3.0 | 10.0 | 0.00 | 0.00 | 0.00 | 82 | 1011.9 |
| 20260510002040 | 66 | 229 | 4.0 | 10.0 | 0.00 | 0.00 | 0.00 | 82 | 1011.9 |
| 20260510001547 | 66 | 255 | 7.0 | 10.0 | 0.00 | 0.00 | 0.00 | 81 | 1011.7 |
| 20260510001040 | 66 | 239 | 5.0 | 11.0 | 0.00 | 0.00 | 0.00 | 82 | 1011.7 |
| 20260510000543 | 66 | 200 | 5.0 | 11.0 | 0.00 | 0.00 | 0.00 | 81 | 1011.7 |
| 20260510000048 | 66 | 234 | 8.0 | 11.0 | 0.00 | 0.00 | 0.00 | 81 | 1011.7 |
| 20260509235540 | 66 | 225 | 7.0 | 13.0 | 0.00 | 0.00 | 0.00 | 80 | 1011.7 |
| 20260509235040 | 66 | 259 | 7.0 | 13.0 | 0.00 | 0.00 | 0.00 | 80 | 1011.7 |
| 20260509234545 | 67 | 252 | 7.0 | 13.0 | 0.00 | 0.00 | 0.00 | 79 | 1011.8 |
| 20260509234039 | 67 | 241 | 7.0 | 12.0 | 0.00 | 0.00 | 0.00 | 79 | 1011.8 |
| 20260509233542 | 67 | 246 | 6.0 | 14.0 | 0.00 | 0.00 | 0.00 | 79 | 1011.5 |
| 20260509233047 | 67 | 205 | 6.0 | 14.0 | 0.00 | 0.00 | 0.00 | 78 | 1011.5 |
| 20260509232542 | 67 | 240 | 9.0 | 13.0 | 0.00 | 0.00 | 0.00 | 78 | 1011.5 |
| 20260509232039 | 67 | 243 | 10.0 | 13.0 | 0.00 | 0.00 | 0.00 | 80 | 1011.5 |
| 20260509231559 | 67 | 261 | 8.0 | 14.0 | 0.00 | 0.00 | 0.00 | 79 | 1011.3 |
| 20260509231038 | 67 | 259 | 9.0 | 14.0 | 0.00 | 0.00 | 0.00 | 79 | 1011.3 |
| 20260509230539 | 67 | 232 | 11.0 | 14.0 | 0.00 | 0.00 | 0.00 | 78 | 1011.2 |
| 20260509225538 | 68 | 229 | 9.0 | 12.0 | 0.00 | 0.00 | 0.00 | 79 | 1011.2 |
| 20260509225038 | 68 | 232 | 7.0 | 11.0 | 0.00 | 0.00 | 0.00 | 78 | 1011.3 |
| 20260509224600 | 68 | 236 | 6.0 | 12.0 | 0.00 | 0.00 | 0.00 | 77 | 1011.2 |
| 20260509224041 | 68 | 234 | 6.0 | 12.0 | 0.00 | 0.00 | 0.00 | 77 | 1011.1 |
| 20260509223538 | 68 | 244 | 8.0 | 11.0 | 0.00 | 0.00 | 0.00 | 77 | 1011.1 |
| 20260509223052 | 68 | 241 | 7.0 | 11.0 | 0.00 | 0.00 | 0.00 | 76 | 1011.2 |
| 20260509222538 | 68 | 232 | 7.0 | 11.0 | 0.00 | 0.00 | 0.00 | 77 | 1011.1 |
| 20260509222038 | 68 | 257 | 5.0 | 8.0 | 0.00 | 0.00 | 0.00 | 76 | 1011.1 |
| 20260509221551 | 68 | 229 | 5.0 | 8.0 | 0.00 | 0.00 | 0.00 | 75 | 1010.9 |
| 20260509221038 | 68 | 246 | 4.0 | 7.0 | 0.00 | 0.00 | 0.00 | 76 | 1010.8 |
| 20260509220539 | 68 | 229 | 3.0 | 9.0 | 0.00 | 0.00 | 0.00 | 76 | 1011.0 |